Regional Weather Roundup
Issued by NWS Cleveland, OH

Home | Current Version | Previous Version | Graphics & Text | Print | Product List | Glossary On
Versions: 1 2 3 4 5 6 7 8 9 10 11 12 13 14 15 16 17 18 19 20 21 22 23 24 25 26 27 28 29 30 31 32 33 34 35 36 37 38 39 40 41 42 43 44 45 46 47 48 49 50
000
ASUS41 KCLE 310010
RWRCLE
OHIO REGIONAL WEATHER ROUNDUP
NATIONAL WEATHER SERVICE WILMINGTON, OH
800 PM EDT SAT AUG 30 2014

NOTE: "FAIR" INDICATES FEW OR NO CLOUDS BELOW 12,000 FEET WITH NO
SIGNIFICANT WEATHER AND/OR OBSTRUCTIONS TO VISIBILITY.

OHZ001>008-015>018-024>027-034-035-043-044-310100-
   NORTHWEST OHIO

CITY           SKY/WX    TMP DP  RH WIND       PRES   REMARKS
DEFIANCE       MOCLDY    79  69  71 SW14G21   29.92S
FINDLAY        MOCLDY    78  68  71 S14       29.95S
TOLEDO EXPRESS MOCLDY    79  68  69 SW10G22   29.91S
TOLEDO METCALF MOCLDY    80  66  62 SW14G22   29.92S
LIMA           CLOUDY    78  68  71 SW10      29.98S
$$

OHZ009>014-019>023-028>033-038-089-310100-
   NORTHEAST OHIO

CITY           SKY/WX    TMP DP  RH WIND       PRES   REMARKS
CLE-HOPKINS    PTCLDY    82  65  56 SW9       29.97R
CLE-LAKEFRONT  PTCLDY    85  64  49 SW12G23   29.92S
CUY CO. ARPT   MOCLDY    84  68  58 SW14      29.96S
LORAIN-ELYRIA  CLEAR     84  66  54 SW12      29.96S
ASHTABULA      MOCLDY    81  66  60 S7        29.97R
AKRON-CANTON   MOCLDY    82  65  56 SW17      30.00R
WOOSTER        CLEAR     78  66  66 S7        30.00S
MANSFIELD      CLEAR     78  67  68 SW8       30.00S
YOUNGSTOWN     MOCLDY    81  65  58 S6        30.00R
$$

OHZ042-051>053-060>062-070>072-077>081-310100-
  SOUTHWEST OHIO

CITY           SKY/WX    TMP DP  RH WIND       PRES   REMARKS
CINC-COVINGTON CLOUDY    73  70  90 S6        30.03F FOG
CINC-LUNKEN    CLOUDY    73  70  90 S7        30.03S
HAMILTON       CLOUDY    75  72  90 VRB6      30.03S
DAYTON         CLOUDY    79  69  71 S18G24    30.02R
WRIGHT-PAT AFB CLOUDY    77  71  82 SW9       30.02R
DAYTON GENERAL CLOUDY    75  71  87 SW8       30.02S
WILMINGTON     LGT RAIN  72  68  87 SW8       30.03S FOG
$$

OHZ036-037-039>041-045>050-054>059-063>069-073>076-082>088-310100-
  CENTRAL AND SOUTHEAST OHIO

CITY           SKY/WX    TMP DP  RH WIND       PRES   REMARKS
COLUMBUS       CLOUDY    85  64  49 SW12      30.00R
OSU AIRPORT    LGT RAIN  80  66  62 SW18G28   30.01R
BOLTON FIELD   DRIZZLE   77  68  73 SW14G20   30.02R
RICKENBACK AFB DRIZZLE   81  62  52 SW12G18   30.01R
NEWARK         PTCLDY    80  66  62 SW6       30.00S
MARION         MOCLDY    79  68  69 SW6       29.99S
LANCASTER      MOCLDY    82  67  60 SW6       30.02R
ZANESVILLE     PTCLDY    81  66  60 SW5       30.01R
NEW PHILLY     CLEAR     80  67  64 S3        30.01R
$$



USA.gov is the U.S. government's official web portal to all federal, state and local government web resources and services.